Regional Weather Roundup
Issued by NWS

Home | Current Version | Previous Version | Graphics & Text | Print | Product List | Glossary On
Versions: 1 2 3 4 5 6 7 8 9 10 11 12 13 14 15 16 17 18 19 20 21 22 23 24 25 26 27 28 29 30 31 32 33 34 35 36 37 38 39 40 41 42 43 44 45 46 47 48 49 50
000
ASUS43 KLMK 291902
RWRKY
KENTUCKY REGIONAL WEATHER ROUNDUP
NATIONAL WEATHER SERVICE LOUISVILLE KY
300 PM EDT SUN MAY 29 2016

NOTE "FAIR" INDICATES FEW OR NO CLOUDS BELOW 12,000 FEET
WITH NO SIGNIFICANT WEATHER AND/OR OBSTRUCTIONS TO VISIBILITY.

KYZ001>023-026-027-061>063-070>075-292000-
WESTERN AND SOUTH CENTRAL KENTUCKY

CITY           SKY/WX    TMP DP  RH WIND       PRES   REMARKS
PADUCAH        PTSUNNY   84  68  58 NW7       30.07F
HENDERSON      MOSUNNY   88  66  48 SW9       30.05F HX  90
OWENSBORO      LGT RAIN  87  68  53 W9        30.07F HX  90
HOPKINSVILLE   NOT AVBL
BOWLING GREEN  PTSUNNY   86  67  52 SW10      30.09F
GLASGOW        NOT AVBL
$$

KYZ024-025-028>034-038-045-046-053-292000-
NORTH CENTRAL KENTUCKY

CITY           SKY/WX    TMP DP  RH WIND       PRES   REMARKS
LOUISVILLE/SDF MOSUNNY   88  66  48 SW10      30.06F HX  90
LOUISVILLE/LOU MOSUNNY   86  66  51 SW8       30.07F
FORT KNOX      NOT AVBL
$$

KYZ035>037-039>044-047>052-055>060-089>105-292000-
NORTHEAST KENTUCKY

CITY           SKY/WX    TMP DP  RH WIND       PRES   REMARKS
LEXINGTON      MOSUNNY   83  65  54 W8        30.10F
COVINGTON      MOSUNNY   85  67  54 S8G16     30.07F
FRANKFORT      SUNNY     86  64  47 SW10      30.07F
$$

KYZ054-064>069-076>088-106>120-292000-
SOUTHEAST KENTUCKY

CITY           SKY/WX    TMP DP  RH WIND       PRES   REMARKS
JACKSON        CLOUDY    77  66  68 CALM      30.14F
LONDON         MOSUNNY   84  62  47 VRB7      30.12F
SOMERSET       NOT AVBL
MIDDLESBORO    NOT AVBL
MONTICELLO     PTCLDY    85  66  53 W9G16     30.13F
$$




USA.gov is the U.S. government's official web portal to all federal, state and local government web resources and services.